Year,Month,Day,Hour,Minute,Value (Times are PST for temperature in C)
2020,08,17,00,00,20.20
2020,08,17,00,01,20.20
2020,08,17,00,02,20.20
2020,08,17,00,03,20.10
2020,08,17,00,04,20.10
2020,08,17,00,05,20.10
2020,08,17,00,06,20.10
2020,08,17,00,07,20.10
2020,08,17,00,08,20.10
2020,08,17,00,09,20.10
2020,08,17,00,10,20.10
2020,08,17,00,11,20.10
2020,08,17,00,12,20.10
2020,08,17,00,13,20.10
2020,08,17,00,14,20.20
2020,08,17,00,15,20.20
2020,08,17,00,16,20.20
2020,08,17,00,17,20.20
2020,08,17,00,18,20.20
2020,08,17,00,19,20.20
2020,08,17,00,20,20.20
2020,08,17,00,21,20.20
2020,08,17,00,22,20.20
2020,08,17,00,23,20.20
2020,08,17,00,24,20.20
2020,08,17,00,25,20.20
2020,08,17,00,26,20.20
2020,08,17,00,27,20.20
2020,08,17,00,28,20.20
2020,08,17,00,29,20.20
2020,08,17,00,30,20.10
2020,08,17,00,31,20.10
2020,08,17,00,32,20.10
2020,08,17,00,33,20.00
2020,08,17,00,34,20.00
2020,08,17,00,35,19.90
2020,08,17,00,36,19.90
2020,08,17,00,37,19.90
2020,08,17,00,38,19.90
2020,08,17,00,39,19.90
2020,08,17,00,40,19.80
2020,08,17,00,41,19.80
2020,08,17,00,42,19.80
2020,08,17,00,43,19.80
2020,08,17,00,44,19.80
2020,08,17,00,45,19.80
2020,08,17,00,46,19.80
2020,08,17,00,47,19.80
2020,08,17,00,48,19.80
2020,08,17,00,49,19.80
2020,08,17,00,50,19.80
2020,08,17,00,51,19.80
2020,08,17,00,52,19.80
2020,08,17,00,53,19.80
2020,08,17,00,54,19.80
2020,08,17,00,55,19.80
2020,08,17,00,56,19.80
2020,08,17,00,57,19.80
2020,08,17,00,58,19.80
2020,08,17,00,59,19.80
2020,08,17,01,00,19.80
2020,08,17,01,01,19.80
2020,08,17,01,02,19.80
2020,08,17,01,03,19.80
2020,08,17,01,04,19.80
2020,08,17,01,05,19.80
2020,08,17,01,06,19.80
2020,08,17,01,07,19.80
2020,08,17,01,08,19.80
2020,08,17,01,09,19.80
2020,08,17,01,10,19.80
2020,08,17,01,11,19.80
2020,08,17,01,12,19.80
2020,08,17,01,13,19.80
2020,08,17,01,14,19.80
2020,08,17,01,15,19.80
2020,08,17,01,16,19.80
2020,08,17,01,17,19.80
2020,08,17,01,18,19.80
2020,08,17,01,19,19.80
2020,08,17,01,20,19.80
2020,08,17,01,21,19.80
2020,08,17,01,22,19.80
2020,08,17,01,23,19.80
2020,08,17,01,24,19.80
2020,08,17,01,25,19.80
2020,08,17,01,26,19.80
2020,08,17,01,27,19.80
2020,08,17,01,28,19.80
2020,08,17,01,29,19.80
2020,08,17,01,30,19.70
2020,08,17,01,31,19.70
2020,08,17,01,32,19.70
2020,08,17,01,33,19.70
2020,08,17,01,34,19.70
2020,08,17,01,35,19.70
2020,08,17,01,36,19.70
2020,08,17,01,37,19.70
2020,08,17,01,38,19.70
2020,08,17,01,39,19.70
2020,08,17,01,40,19.70
2020,08,17,01,41,19.70
2020,08,17,01,42,19.70
2020,08,17,01,43,19.70
2020,08,17,01,44,19.60
2020,08,17,01,45,19.60
2020,08,17,01,46,19.60
2020,08,17,01,47,19.60
2020,08,17,01,48,19.60
2020,08,17,01,49,19.50
2020,08,17,01,50,19.50
2020,08,17,01,51,19.50
2020,08,17,01,52,19.50
2020,08,17,01,53,19.40
2020,08,17,01,54,19.40
2020,08,17,01,55,19.40
2020,08,17,01,56,19.40
2020,08,17,01,57,19.30
2020,08,17,01,58,19.30
2020,08,17,01,59,19.30
2020,08,17,02,00,19.30
2020,08,17,02,01,19.30
2020,08,17,02,02,19.30
2020,08,17,02,03,19.30
2020,08,17,02,04,19.30
2020,08,17,02,05,19.20
2020,08,17,02,06,19.20
2020,08,17,02,07,19.20
2020,08,17,02,08,19.20
2020,08,17,02,09,19.20
2020,08,17,02,10,19.20
2020,08,17,02,11,19.20
2020,08,17,02,12,19.20
2020,08,17,02,13,19.20
2020,08,17,02,14,19.20
2020,08,17,02,15,19.20
2020,08,17,02,16,19.10
2020,08,17,02,17,19.10
2020,08,17,02,18,19.10
2020,08,17,02,19,19.10
2020,08,17,02,20,19.10
2020,08,17,02,21,19.10
2020,08,17,02,22,19.10
2020,08,17,02,23,19.10
2020,08,17,02,24,19.10
2020,08,17,02,25,19.10
2020,08,17,02,26,19.10
2020,08,17,02,27,19.10
2020,08,17,02,28,19.10
2020,08,17,02,29,19.10
2020,08,17,02,30,19.10
2020,08,17,02,31,19.10
2020,08,17,02,32,19.10
2020,08,17,02,33,19.10
2020,08,17,02,34,19.10
2020,08,17,02,35,19.10
2020,08,17,02,36,19.10
2020,08,17,02,37,19.10
2020,08,17,02,38,19.10
2020,08,17,02,39,19.00
2020,08,17,02,40,19.00
2020,08,17,02,41,19.00
2020,08,17,02,42,19.00
2020,08,17,02,43,19.10
2020,08,17,02,44,19.10
2020,08,17,02,45,19.10
2020,08,17,02,46,19.10
2020,08,17,02,47,19.10
2020,08,17,02,48,19.00
2020,08,17,02,49,19.00
2020,08,17,02,50,19.00
2020,08,17,02,51,18.90
2020,08,17,02,52,18.90
2020,08,17,02,53,18.80
2020,08,17,02,54,18.80
2020,08,17,02,55,18.80
2020,08,17,02,56,18.80
2020,08,17,02,57,18.80
2020,08,17,02,58,18.80
2020,08,17,02,59,18.80
2020,08,17,03,00,18.80
2020,08,17,03,01,18.80
2020,08,17,03,02,18.80
2020,08,17,03,03,18.80
2020,08,17,03,04,18.80
2020,08,17,03,05,18.80
2020,08,17,03,06,18.80
2020,08,17,03,07,18.70
2020,08,17,03,08,18.70
2020,08,17,03,09,18.70
2020,08,17,03,10,18.70
2020,08,17,03,11,18.70
2020,08,17,03,12,18.70
2020,08,17,03,13,18.70
2020,08,17,03,14,18.70
2020,08,17,03,15,18.70
2020,08,17,03,16,18.70
2020,08,17,03,17,18.70
2020,08,17,03,18,18.70
2020,08,17,03,19,18.60
2020,08,17,03,20,18.60
2020,08,17,03,21,18.60
2020,08,17,03,22,18.60
2020,08,17,03,23,18.60
2020,08,17,03,24,18.60
2020,08,17,03,25,18.60
2020,08,17,03,26,18.60
2020,08,17,03,27,18.60
2020,08,17,03,28,18.50
2020,08,17,03,29,18.50
2020,08,17,03,30,18.50
2020,08,17,03,31,18.50
2020,08,17,03,32,18.50
2020,08,17,03,33,18.50
2020,08,17,03,34,18.50
2020,08,17,03,35,18.50
2020,08,17,03,36,18.50
2020,08,17,03,37,18.50
2020,08,17,03,38,18.50
2020,08,17,03,39,18.50
2020,08,17,03,40,18.50
2020,08,17,03,41,18.50
2020,08,17,03,42,18.50
2020,08,17,03,43,18.50
2020,08,17,03,44,18.50
2020,08,17,03,45,18.40
2020,08,17,03,46,18.40
2020,08,17,03,47,18.40
2020,08,17,03,48,18.40
2020,08,17,03,49,18.40
2020,08,17,03,50,18.40
2020,08,17,03,51,18.30
2020,08,17,03,52,18.30
2020,08,17,03,53,18.30
2020,08,17,03,54,18.30
2020,08,17,03,55,18.30
2020,08,17,03,56,18.30
2020,08,17,03,57,18.40
2020,08,17,03,58,18.40
2020,08,17,03,59,18.40
2020,08,17,04,00,18.40
2020,08,17,04,01,18.40
2020,08,17,04,02,18.40
2020,08,17,04,03,18.40
2020,08,17,04,04,18.40
2020,08,17,04,05,18.40
2020,08,17,04,06,18.40
2020,08,17,04,07,18.40
2020,08,17,04,08,18.40
2020,08,17,04,09,18.40
2020,08,17,04,10,18.40
2020,08,17,04,11,18.40
2020,08,17,04,12,18.40
2020,08,17,04,13,18.40
2020,08,17,04,14,18.40
2020,08,17,04,15,18.40
2020,08,17,04,16,18.40
2020,08,17,04,17,18.50
2020,08,17,04,18,18.50
2020,08,17,04,19,18.50
2020,08,17,04,20,18.50
2020,08,17,04,21,18.50
2020,08,17,04,22,18.50
2020,08,17,04,23,18.40
2020,08,17,04,24,18.40
2020,08,17,04,25,18.40
2020,08,17,04,26,18.40
2020,08,17,04,27,18.40
2020,08,17,04,28,18.40
2020,08,17,04,29,18.40
2020,08,17,04,30,18.40
2020,08,17,04,31,18.40
2020,08,17,04,32,18.40
2020,08,17,04,33,18.40
2020,08,17,04,34,18.40
2020,08,17,04,35,18.30
2020,08,17,04,36,18.30
2020,08,17,04,37,18.30
2020,08,17,04,38,18.30
2020,08,17,04,39,18.30
2020,08,17,04,40,18.30
2020,08,17,04,41,18.30
2020,08,17,04,42,18.30
2020,08,17,04,43,18.30
2020,08,17,04,44,18.30
2020,08,17,04,45,18.30
2020,08,17,04,46,18.30
2020,08,17,04,47,18.30
2020,08,17,04,48,18.30
2020,08,17,04,49,18.30
2020,08,17,04,50,18.30
2020,08,17,04,51,18.30
2020,08,17,04,52,18.30
2020,08,17,04,53,18.30
2020,08,17,04,54,18.30
2020,08,17,04,55,18.30
2020,08,17,04,56,18.30
2020,08,17,04,57,18.30
2020,08,17,04,58,18.30
2020,08,17,04,59,18.30
2020,08,17,05,00,18.30
2020,08,17,05,01,18.40
2020,08,17,05,02,18.40
2020,08,17,05,03,18.40
2020,08,17,05,04,18.40
2020,08,17,05,05,18.30
2020,08,17,05,06,18.30
2020,08,17,05,07,18.30
2020,08,17,05,08,18.30
2020,08,17,05,09,18.30
2020,08,17,05,10,18.30
2020,08,17,05,11,18.30
2020,08,17,05,12,18.30
2020,08,17,05,13,18.30
2020,08,17,05,14,18.30
2020,08,17,05,15,18.30
2020,08,17,05,16,18.30
2020,08,17,05,17,18.30
2020,08,17,05,18,18.30
2020,08,17,05,19,18.20
2020,08,17,05,20,18.20
2020,08,17,05,21,18.20
2020,08,17,05,22,18.20
2020,08,17,05,23,18.20
2020,08,17,05,24,18.20
2020,08,17,05,25,18.20
2020,08,17,05,26,18.10
2020,08,17,05,27,18.10
2020,08,17,05,28,18.10
2020,08,17,05,29,18.10
2020,08,17,05,30,18.10
2020,08,17,05,31,18.10
2020,08,17,05,32,18.20
2020,08,17,05,33,18.10
2020,08,17,05,34,18.10
2020,08,17,05,35,18.10
2020,08,17,05,36,18.10
2020,08,17,05,37,18.10
2020,08,17,05,38,18.10
2020,08,17,05,39,18.10
2020,08,17,05,40,18.00
2020,08,17,05,41,18.00
2020,08,17,05,42,18.00
2020,08,17,05,43,18.00
2020,08,17,05,44,18.00
2020,08,17,05,45,18.00
2020,08,17,05,46,18.00
2020,08,17,05,47,18.00
2020,08,17,05,48,18.00
2020,08,17,05,49,18.00
2020,08,17,05,50,18.00
2020,08,17,05,51,18.00
2020,08,17,05,52,18.00
2020,08,17,05,53,18.00
2020,08,17,05,54,17.90
2020,08,17,05,55,18.00
2020,08,17,05,56,17.90
2020,08,17,05,57,17.90
2020,08,17,05,58,17.90
2020,08,17,05,59,17.90
2020,08,17,06,00,17.90
2020,08,17,06,01,17.90
2020,08,17,06,02,17.90
2020,08,17,06,03,17.90
2020,08,17,06,04,17.90
2020,08,17,06,05,17.90
2020,08,17,06,06,17.90
2020,08,17,06,07,17.90
2020,08,17,06,08,17.80
2020,08,17,06,09,17.80
2020,08,17,06,10,17.80
2020,08,17,06,11,17.80
2020,08,17,06,12,17.90
2020,08,17,06,13,17.90
2020,08,17,06,14,17.90
2020,08,17,06,15,17.90
2020,08,17,06,16,17.90
2020,08,17,06,17,17.90
2020,08,17,06,18,17.90
2020,08,17,06,19,17.90
2020,08,17,06,20,17.90
2020,08,17,06,21,17.90
2020,08,17,06,22,17.90
2020,08,17,06,23,17.90
2020,08,17,06,24,17.90
2020,08,17,06,25,17.90
2020,08,17,06,26,17.90
2020,08,17,06,27,17.90
2020,08,17,06,28,17.90
2020,08,17,06,29,17.80
2020,08,17,06,30,17.80
2020,08,17,06,31,17.80
2020,08,17,06,32,17.80
2020,08,17,06,33,17.80
2020,08,17,06,34,17.80
2020,08,17,06,35,17.80
2020,08,17,06,36,17.80
2020,08,17,06,37,17.80
2020,08,17,06,38,17.80
2020,08,17,06,39,17.90
2020,08,17,06,40,17.90
2020,08,17,06,41,17.90
2020,08,17,06,42,17.90
2020,08,17,06,43,17.90
2020,08,17,06,44,17.90
2020,08,17,06,45,17.90
2020,08,17,06,46,17.90
2020,08,17,06,47,17.90
2020,08,17,06,48,17.90
2020,08,17,06,49,17.90
2020,08,17,06,50,17.90
2020,08,17,06,51,17.90
2020,08,17,06,52,18.00
2020,08,17,06,53,18.00
2020,08,17,06,54,18.00
2020,08,17,06,55,18.00
2020,08,17,06,56,18.10
2020,08,17,06,57,18.10
2020,08,17,06,58,18.10
2020,08,17,06,59,18.10
2020,08,17,07,00,18.10
2020,08,17,07,01,18.20
2020,08,17,07,02,18.20
2020,08,17,07,03,18.20
2020,08,17,07,04,18.20
2020,08,17,07,05,18.30
2020,08,17,07,06,18.30
2020,08,17,07,07,18.30
2020,08,17,07,08,18.40
2020,08,17,07,09,18.50
2020,08,17,07,10,18.50
2020,08,17,07,11,18.60
2020,08,17,07,12,18.60
2020,08,17,07,13,18.60
2020,08,17,07,14,18.70
2020,08,17,07,15,18.80
2020,08,17,07,16,19.00
2020,08,17,07,17,19.20
2020,08,17,07,18,19.30
2020,08,17,07,19,19.40
2020,08,17,07,20,19.50
2020,08,17,07,21,19.60
2020,08,17,07,22,19.60
2020,08,17,07,23,19.70
2020,08,17,07,24,19.80
2020,08,17,07,25,19.80
2020,08,17,07,26,19.90
2020,08,17,07,27,19.90
2020,08,17,07,28,20.00
2020,08,17,07,29,20.10
2020,08,17,07,30,20.20
2020,08,17,07,31,20.30
2020,08,17,07,32,20.40
2020,08,17,07,33,20.50
2020,08,17,07,34,20.60
2020,08,17,07,35,20.60
2020,08,17,07,36,20.70
2020,08,17,07,37,20.80
2020,08,17,07,38,20.80
2020,08,17,07,39,20.90
2020,08,17,07,40,21.00
2020,08,17,07,41,21.10
2020,08,17,07,42,21.10
2020,08,17,07,43,21.20
2020,08,17,07,44,21.20
2020,08,17,07,45,21.30
2020,08,17,07,46,21.30
2020,08,17,07,47,21.40
2020,08,17,07,48,21.40
2020,08,17,07,49,21.50
2020,08,17,07,50,21.50
2020,08,17,07,51,21.60
2020,08,17,07,52,21.60
2020,08,17,07,53,21.60
2020,08,17,07,54,21.60
2020,08,17,07,55,21.70
2020,08,17,07,56,21.70
2020,08,17,07,57,21.70
2020,08,17,07,58,21.70
2020,08,17,07,59,21.70
2020,08,17,08,00,21.70
2020,08,17,08,01,21.70
2020,08,17,08,02,21.70
2020,08,17,08,03,21.80
2020,08,17,08,04,21.80
2020,08,17,08,05,21.80
2020,08,17,08,06,21.80
2020,08,17,08,07,21.80
2020,08,17,08,08,21.80
2020,08,17,08,09,21.80
2020,08,17,08,10,21.90
2020,08,17,08,11,21.90
2020,08,17,08,12,21.90
2020,08,17,08,13,22.00
2020,08,17,08,14,22.00
2020,08,17,08,15,22.00
2020,08,17,08,16,22.10
2020,08,17,08,17,22.10
2020,08,17,08,18,22.10
2020,08,17,08,19,22.10
2020,08,17,08,20,22.20
2020,08,17,08,21,22.20
2020,08,17,08,22,22.20
2020,08,17,08,23,22.20
2020,08,17,08,24,22.30
2020,08,17,08,25,22.30
2020,08,17,08,26,22.30
2020,08,17,08,27,22.40
2020,08,17,08,28,22.40
2020,08,17,08,29,22.40
2020,08,17,08,30,22.40
2020,08,17,08,31,22.50
2020,08,17,08,32,22.50
2020,08,17,08,33,22.60
2020,08,17,08,34,22.60
2020,08,17,08,35,22.60
2020,08,17,08,36,22.60
2020,08,17,08,37,22.60
2020,08,17,08,38,22.60
2020,08,17,08,39,22.70
2020,08,17,08,40,22.70
2020,08,17,08,41,22.80
2020,08,17,08,42,22.80
2020,08,17,08,43,22.80
2020,08,17,08,44,22.90
2020,08,17,08,45,22.90
2020,08,17,08,46,23.00
2020,08,17,08,47,23.00
2020,08,17,08,48,23.00
2020,08,17,08,49,23.10
2020,08,17,08,50,23.10
2020,08,17,08,51,23.10
2020,08,17,08,52,23.10
2020,08,17,08,53,23.10
2020,08,17,08,54,23.10
2020,08,17,08,55,23.10
2020,08,17,08,56,23.00
2020,08,17,08,57,23.10
2020,08,17,08,58,23.10
2020,08,17,08,59,23.10
2020,08,17,09,00,23.20
2020,08,17,09,01,23.20
2020,08,17,09,02,23.20
2020,08,17,09,03,23.20
2020,08,17,09,04,23.30
2020,08,17,09,05,23.30
2020,08,17,09,06,23.30
2020,08,17,09,07,23.40
2020,08,17,09,08,23.40
2020,08,17,09,09,23.40
2020,08,17,09,10,23.40
2020,08,17,09,11,23.40
2020,08,17,09,12,23.40
2020,08,17,09,13,23.40
2020,08,17,09,14,23.40
2020,08,17,09,15,23.40
2020,08,17,09,16,23.40
2020,08,17,09,17,23.50
2020,08,17,09,18,23.60
2020,08,17,09,19,23.60
2020,08,17,09,20,23.60
2020,08,17,09,21,23.60
2020,08,17,09,22,23.60
2020,08,17,09,23,23.60
2020,08,17,09,24,23.60
2020,08,17,09,25,23.60
2020,08,17,09,26,23.70
2020,08,17,09,27,23.70
2020,08,17,09,28,23.70
2020,08,17,09,29,23.70
2020,08,17,09,30,23.70
2020,08,17,09,31,23.70
2020,08,17,09,32,23.70
2020,08,17,09,33,23.70
2020,08,17,09,34,23.80
2020,08,17,09,35,23.80
2020,08,17,09,36,23.80
2020,08,17,09,37,23.90
2020,08,17,09,38,23.90
2020,08,17,09,39,24.00
2020,08,17,09,40,24.10
2020,08,17,09,41,24.10
2020,08,17,09,42,24.10
2020,08,17,09,43,24.20
2020,08,17,09,44,24.20
2020,08,17,09,45,24.20
2020,08,17,09,46,24.20
2020,08,17,09,47,24.20
2020,08,17,09,48,24.20
2020,08,17,09,49,24.20
2020,08,17,09,50,24.20
2020,08,17,09,51,24.30
2020,08,17,09,52,24.30
2020,08,17,09,53,24.30
2020,08,17,09,54,24.30
2020,08,17,09,55,24.30
2020,08,17,09,56,24.30
2020,08,17,09,57,24.30
2020,08,17,09,58,24.30
2020,08,17,09,59,24.40
2020,08,17,10,00,24.40
2020,08,17,10,01,24.50
2020,08,17,10,02,24.50
2020,08,17,10,03,24.60
2020,08,17,10,04,24.60
2020,08,17,10,05,24.60
2020,08,17,10,06,24.60
2020,08,17,10,07,24.60
2020,08,17,10,08,24.60
2020,08,17,10,09,24.60
2020,08,17,10,10,24.60
2020,08,17,10,11,24.50
2020,08,17,10,12,24.50
2020,08,17,10,13,24.50
2020,08,17,10,14,24.50
2020,08,17,10,15,24.50
2020,08,17,10,16,24.50
2020,08,17,10,17,24.60
2020,08,17,10,18,24.60
2020,08,17,10,19,24.60
2020,08,17,10,20,24.60
2020,08,17,10,21,24.50
2020,08,17,10,22,24.50
2020,08,17,10,23,24.40
2020,08,17,10,24,24.40
2020,08,17,10,25,24.50
2020,08,17,10,26,24.50
2020,08,17,10,27,24.60
2020,08,17,10,28,24.60
2020,08,17,10,29,24.70
2020,08,17,10,30,24.70
2020,08,17,10,31,24.70
2020,08,17,10,32,24.80
2020,08,17,10,33,24.80
2020,08,17,10,34,24.90
2020,08,17,10,35,24.90
2020,08,17,10,36,24.90
2020,08,17,10,37,24.90
2020,08,17,10,38,24.90
2020,08,17,10,39,24.90
2020,08,17,10,40,24.90
2020,08,17,10,41,24.90
2020,08,17,10,42,24.90
2020,08,17,10,43,24.90
2020,08,17,10,44,25.00
2020,08,17,10,45,25.00
2020,08,17,10,46,25.00
2020,08,17,10,47,25.00
2020,08,17,10,48,24.90
2020,08,17,10,49,24.90
2020,08,17,10,50,24.90
2020,08,17,10,51,25.00
2020,08,17,10,52,25.00
2020,08,17,10,53,25.10
2020,08,17,10,54,25.20
2020,08,17,10,55,25.20
2020,08,17,10,56,25.20
2020,08,17,10,57,25.20
2020,08,17,10,58,25.30
2020,08,17,10,59,25.30
2020,08,17,11,00,25.30
2020,08,17,11,01,25.30
2020,08,17,11,02,25.30
2020,08,17,11,03,25.30
2020,08,17,11,04,25.20
2020,08,17,11,05,25.20
2020,08,17,11,06,25.20
2020,08,17,11,07,25.10
2020,08,17,11,08,25.10
2020,08,17,11,09,25.00
2020,08,17,11,10,25.00
2020,08,17,11,11,25.00
2020,08,17,11,12,25.00
2020,08,17,11,13,25.00
2020,08,17,11,14,25.00
2020,08,17,11,15,25.10
2020,08,17,11,16,25.20
2020,08,17,11,17,25.20
2020,08,17,11,18,25.30
2020,08,17,11,19,25.30
2020,08,17,11,20,25.30
2020,08,17,11,21,25.30
2020,08,17,11,22,25.30
2020,08,17,11,23,25.30
2020,08,17,11,24,25.30
2020,08,17,11,25,25.30
2020,08,17,11,26,25.30
2020,08,17,11,27,25.30
2020,08,17,11,28,25.30
2020,08,17,11,29,25.40
2020,08,17,11,30,25.40
2020,08,17,11,31,25.40
2020,08,17,11,32,25.50
2020,08,17,11,33,25.50
2020,08,17,11,34,25.40
2020,08,17,11,35,25.40
2020,08,17,11,36,25.50
2020,08,17,11,37,25.50
2020,08,17,11,38,25.60
2020,08,17,11,39,25.60
2020,08,17,11,40,25.70
2020,08,17,11,41,25.80
2020,08,17,11,42,25.90
2020,08,17,11,43,25.90
2020,08,17,11,44,25.90
2020,08,17,11,45,25.90
2020,08,17,11,46,25.90
2020,08,17,11,47,25.90
2020,08,17,11,48,25.90
2020,08,17,11,49,25.90
2020,08,17,11,50,25.90
2020,08,17,11,51,25.90
2020,08,17,11,52,26.00
2020,08,17,11,53,26.00
2020,08,17,11,54,26.10
2020,08,17,11,55,26.10
2020,08,17,11,56,26.10
2020,08,17,11,57,26.10
2020,08,17,11,58,26.00
2020,08,17,11,59,26.00
2020,08,17,12,00,26.00
2020,08,17,12,01,26.00
2020,08,17,12,02,26.00
2020,08,17,12,03,26.00
2020,08,17,12,04,26.00
2020,08,17,12,05,26.00
2020,08,17,12,06,26.00
2020,08,17,12,07,26.00
2020,08,17,12,08,26.10
2020,08,17,12,09,26.20
2020,08,17,12,10,26.20
2020,08,17,12,11,26.20
2020,08,17,12,12,26.20
2020,08,17,12,13,26.20
2020,08,17,12,14,26.20
2020,08,17,12,15,26.20
2020,08,17,12,16,26.20
2020,08,17,12,17,26.20
2020,08,17,12,18,26.30
2020,08,17,12,19,26.30
2020,08,17,12,20,26.30
2020,08,17,12,21,26.30
2020,08,17,12,22,26.20
2020,08,17,12,23,26.20
2020,08,17,12,24,26.20
2020,08,17,12,25,26.20
2020,08,17,12,26,26.20
2020,08,17,12,27,26.30
2020,08,17,12,28,26.40
2020,08,17,12,29,26.40
2020,08,17,12,30,26.40
2020,08,17,12,31,26.30
2020,08,17,12,32,26.30
2020,08,17,12,33,26.30
2020,08,17,12,34,26.20
2020,08,17,12,35,26.20
2020,08,17,12,36,26.30
2020,08,17,12,37,26.30
2020,08,17,12,38,26.40
2020,08,17,12,39,26.50
2020,08,17,12,40,26.60
2020,08,17,12,41,26.60
2020,08,17,12,42,26.60
2020,08,17,12,43,26.50
2020,08,17,12,44,26.40
2020,08,17,12,45,26.30
2020,08,17,12,46,26.20
2020,08,17,12,47,26.20
2020,08,17,12,48,26.30
2020,08,17,12,49,26.30
2020,08,17,12,50,26.30
2020,08,17,12,51,26.20
2020,08,17,12,52,26.10
2020,08,17,12,53,26.00
2020,08,17,12,54,26.00
2020,08,17,12,55,25.90
2020,08,17,12,56,25.90
2020,08,17,12,57,25.90
2020,08,17,12,58,25.80
2020,08,17,12,59,25.90
2020,08,17,13,00,25.80
2020,08,17,13,01,25.80
2020,08,17,13,02,25.90
2020,08,17,13,03,25.90
2020,08,17,13,04,25.90
2020,08,17,13,05,25.90
2020,08,17,13,06,26.00
2020,08,17,13,07,26.10
2020,08,17,13,08,26.20
2020,08,17,13,09,26.20
2020,08,17,13,10,26.20
2020,08,17,13,11,26.10
2020,08,17,13,12,26.10
2020,08,17,13,13,26.00
2020,08,17,13,14,26.00
2020,08,17,13,15,26.00
2020,08,17,13,16,26.10
2020,08,17,13,17,26.00
2020,08,17,13,18,26.00
2020,08,17,13,19,26.00
2020,08,17,13,20,26.00
2020,08,17,13,21,26.00
2020,08,17,13,22,26.00
2020,08,17,13,23,26.00
2020,08,17,13,24,26.10
2020,08,17,13,25,26.10
2020,08,17,13,26,26.20
2020,08,17,13,27,26.20
2020,08,17,13,28,26.20
2020,08,17,13,29,26.10
2020,08,17,13,30,26.10
2020,08,17,13,31,26.20
2020,08,17,13,32,26.20
2020,08,17,13,33,26.20
2020,08,17,13,34,26.30
2020,08,17,13,35,26.30
2020,08,17,13,36,26.40
2020,08,17,13,37,26.40
2020,08,17,13,38,26.40
2020,08,17,13,39,26.40
2020,08,17,13,40,26.40
2020,08,17,13,41,26.40
2020,08,17,13,42,26.40
2020,08,17,13,43,26.50
2020,08,17,13,44,26.50
2020,08,17,13,45,26.50
2020,08,17,13,46,26.50
2020,08,17,13,47,26.60
2020,08,17,13,48,26.70
2020,08,17,13,49,26.80
2020,08,17,13,50,26.90
2020,08,17,13,51,26.90
2020,08,17,13,52,26.80
2020,08,17,13,53,26.70
2020,08,17,13,54,26.50
2020,08,17,13,55,26.40
2020,08,17,13,56,26.30
2020,08,17,13,57,26.30
2020,08,17,13,58,26.40
2020,08,17,13,59,26.40
2020,08,17,14,00,26.50
2020,08,17,14,01,26.50
2020,08,17,14,02,26.50
2020,08,17,14,03,26.40
2020,08,17,14,04,26.40
2020,08,17,14,05,26.50
2020,08,17,14,06,26.50
2020,08,17,14,07,26.60
2020,08,17,14,08,26.60
2020,08,17,14,09,26.60
2020,08,17,14,10,26.60
2020,08,17,14,11,26.60
2020,08,17,14,12,26.70
2020,08,17,14,13,26.70
2020,08,17,14,14,26.60
2020,08,17,14,15,26.60
2020,08,17,14,16,26.60
2020,08,17,14,17,26.60
2020,08,17,14,18,26.60
2020,08,17,14,19,26.60
2020,08,17,14,20,26.70
2020,08,17,14,21,26.70
2020,08,17,14,22,26.80
2020,08,17,14,23,26.80
2020,08,17,14,24,26.80
2020,08,17,14,25,26.80
2020,08,17,14,26,26.70
2020,08,17,14,27,26.70
2020,08,17,14,28,26.70
2020,08,17,14,29,26.60
2020,08,17,14,30,26.60
2020,08,17,14,31,26.70
2020,08,17,14,32,26.70
2020,08,17,14,33,26.80
2020,08,17,14,34,26.80
2020,08,17,14,35,26.80
2020,08,17,14,36,26.90
2020,08,17,14,37,26.90
2020,08,17,14,38,27.00
2020,08,17,14,39,27.10
2020,08,17,14,40,27.20
2020,08,17,14,41,27.20
2020,08,17,14,42,27.30
2020,08,17,14,43,27.30
2020,08,17,14,44,27.30
2020,08,17,14,45,27.30
2020,08,17,14,46,27.30
2020,08,17,14,47,27.30
2020,08,17,14,48,27.30
2020,08,17,14,49,27.40
2020,08,17,14,50,27.50
2020,08,17,14,51,27.60
2020,08,17,14,52,27.70
2020,08,17,14,53,27.70
2020,08,17,14,54,27.70
2020,08,17,14,55,27.80
2020,08,17,14,56,27.80
2020,08,17,14,57,27.80
2020,08,17,14,58,27.80
2020,08,17,14,59,27.80
2020,08,17,15,00,27.80
2020,08,17,15,01,27.70
2020,08,17,15,02,27.60
2020,08,17,15,03,27.50
2020,08,17,15,04,27.40
2020,08,17,15,05,27.40
2020,08,17,15,06,27.40
2020,08,17,15,07,27.40
2020,08,17,15,08,27.40
2020,08,17,15,09,27.50
2020,08,17,15,10,27.60
2020,08,17,15,11,27.60
2020,08,17,15,12,27.70
2020,08,17,15,13,27.70
2020,08,17,15,14,27.70
2020,08,17,15,15,27.70
2020,08,17,15,16,27.70
2020,08,17,15,17,27.70
2020,08,17,15,18,27.60
2020,08,17,15,19,27.60
2020,08,17,15,20,27.50
2020,08,17,15,21,27.50
2020,08,17,15,22,27.50
2020,08,17,15,23,27.50
2020,08,17,15,24,27.40
2020,08,17,15,25,27.40
2020,08,17,15,26,27.40
2020,08,17,15,27,27.50
2020,08,17,15,28,27.50
2020,08,17,15,29,27.60
2020,08,17,15,30,27.60
2020,08,17,15,31,27.60
2020,08,17,15,32,27.60
2020,08,17,15,33,27.70
2020,08,17,15,34,27.70
2020,08,17,15,35,27.60
2020,08,17,15,36,27.60
2020,08,17,15,37,27.60
2020,08,17,15,38,27.70
2020,08,17,15,39,27.70
2020,08,17,15,40,27.80
2020,08,17,15,41,27.90
2020,08,17,15,42,27.90
2020,08,17,15,43,28.00
2020,08,17,15,44,28.00
2020,08,17,15,45,28.10
2020,08,17,15,46,28.10
2020,08,17,15,47,28.10
2020,08,17,15,48,28.10
2020,08,17,15,49,28.10
2020,08,17,15,50,28.10
2020,08,17,15,51,28.10
2020,08,17,15,52,28.20
2020,08,17,15,53,28.20
2020,08,17,15,54,28.30
2020,08,17,15,55,28.30
2020,08,17,15,56,28.20
2020,08,17,15,57,28.20
2020,08,17,15,58,28.20
2020,08,17,15,59,28.20
2020,08,17,16,00,28.20
2020,08,17,16,01,28.20
2020,08,17,16,02,28.10
2020,08,17,16,03,28.10
2020,08,17,16,04,28.10
2020,08,17,16,05,28.10
2020,08,17,16,06,28.10
2020,08,17,16,07,28.00
2020,08,17,16,08,27.90
2020,08,17,16,09,27.90
2020,08,17,16,10,27.90
2020,08,17,16,11,27.90
2020,08,17,16,12,27.90
2020,08,17,16,13,27.90
2020,08,17,16,14,27.90
2020,08,17,16,15,27.90
2020,08,17,16,16,27.90
2020,08,17,16,17,27.90
2020,08,17,16,18,28.00
2020,08,17,16,19,28.00
2020,08,17,16,20,28.00
2020,08,17,16,21,28.00
2020,08,17,16,22,28.10
2020,08,17,16,23,28.10
2020,08,17,16,24,28.10
2020,08,17,16,25,28.10
2020,08,17,16,26,28.10
2020,08,17,16,27,28.10
2020,08,17,16,28,28.10
2020,08,17,16,29,28.20
2020,08,17,16,30,28.20
2020,08,17,16,31,28.20
2020,08,17,16,32,28.10
2020,08,17,16,33,28.10
2020,08,17,16,34,28.10
2020,08,17,16,35,28.00
2020,08,17,16,36,28.00
2020,08,17,16,37,27.90
2020,08,17,16,38,27.80
2020,08,17,16,39,27.70
2020,08,17,16,40,27.60
2020,08,17,16,41,27.50
2020,08,17,16,42,27.40
2020,08,17,16,43,27.30
2020,08,17,16,44,27.30
2020,08,17,16,45,27.30
2020,08,17,16,46,27.40
2020,08,17,16,47,27.40
2020,08,17,16,48,27.50
2020,08,17,16,49,27.50
2020,08,17,16,50,27.50
2020,08,17,16,51,27.50
2020,08,17,16,52,27.50
2020,08,17,16,53,27.60
2020,08,17,16,54,27.70
2020,08,17,16,55,27.70
2020,08,17,16,56,27.80
2020,08,17,16,57,27.80
2020,08,17,16,58,27.90
2020,08,17,16,59,27.90
2020,08,17,17,00,27.90
2020,08,17,17,01,27.80
2020,08,17,17,02,27.80
2020,08,17,17,03,27.70
2020,08,17,17,04,27.60
2020,08,17,17,05,27.40
2020,08,17,17,06,27.30
2020,08,17,17,07,27.20
2020,08,17,17,08,27.30
2020,08,17,17,09,27.30
2020,08,17,17,10,27.30
2020,08,17,17,11,27.40
2020,08,17,17,12,27.40
2020,08,17,17,13,27.40
2020,08,17,17,14,27.40
2020,08,17,17,15,27.50
2020,08,17,17,16,27.50
2020,08,17,17,17,27.40
2020,08,17,17,18,27.40
2020,08,17,17,19,27.30